TimeEDT,TemperatureF,Dew PointF,Humidity,Sea Level PressureIn,VisibilityMPH,Wind Direction,Wind SpeedMPH,Gust SpeedMPH,PrecipitationIn,Events,Conditions,WindDirDegrees,DateUTC
12:15 AM,32.0,28.4,87,29.81,2.0,NNE,10.4,16.1,N/A,,Overcast,30,2013-03-11 04:15:00
12:35 AM,32.0,30.2,93,29.79,2.5,NNE,9.2,17.3,N/A,,Overcast,20,2013-03-11 04:35:00
12:55 AM,33.8,30.2,87,29.77,3.0,NNE,10.4,18.4,N/A,,Overcast,20,2013-03-11 04:55:00
1:15 AM,33.8,30.2,87,29.75,2.5,NNE,13.8,19.6,N/A,,Overcast,20,2013-03-11 05:15:00
1:35 AM,33.8,30.2,87,29.73,2.0,NNE,10.4,18.4,N/A,,Overcast,30,2013-03-11 05:35:00
1:55 AM,33.8,30.2,87,29.71,4.0,NNE,13.8,19.6,N/A,,Overcast,30,2013-03-11 05:55:00
2:15 AM,33.8,30.2,87,29.70,5.0,NNE,12.7,18.4,N/A,,Overcast,30,2013-03-11 06:15:00
2:35 AM,33.8,30.2,87,29.69,2.5,NNE,11.5,20.7,N/A,,Overcast,30,2013-03-11 06:35:00
3:15 AM,33.8,30.2,87,29.69,2.5,NNE,9.2,-,N/A,,Overcast,20,2013-03-11 07:15:00
3:35 AM,33.8,30.2,87,29.68,2.5,North,10.4,-,N/A,,Overcast,10,2013-03-11 07:35:00
3:55 AM,33.8,30.2,87,29.67,4.0,NNE,9.2,-,N/A,,Overcast,20,2013-03-11 07:55:00
4:15 AM,33.8,30.2,87,29.65,2.0,NNE,10.4,16.1,N/A,,Overcast,20,2013-03-11 08:15:00
4:35 AM,33.8,30.2,87,29.63,3.0,NNE,10.4,17.3,N/A,,Overcast,30,2013-03-11 08:35:00
4:55 AM,33.8,30.2,87,29.62,10.0,NNE,11.5,18.4,N/A,,Overcast,20,2013-03-11 08:55:00
5:15 AM,33.8,30.2,87,29.61,10.0,NNE,10.4,18.4,N/A,,Overcast,20,2013-03-11 09:15:00
5:35 AM,33.8,30.2,87,29.60,10.0,NNE,11.5,16.1,N/A,,Overcast,30,2013-03-11 09:35:00
5:55 AM,33.8,30.2,87,29.59,4.0,NNE,11.5,18.4,N/A,,Overcast,30,2013-03-11 09:55:00
6:15 AM,33.8,30.2,87,29.59,2.5,NNE,10.4,20.7,N/A,,Overcast,30,2013-03-11 10:15:00
6:35 AM,33.8,30.2,87,29.59,2.5,North,11.5,17.3,N/A,,Overcast,10,2013-03-11 10:35:00
6:55 AM,33.8,30.2,87,29.59,2.5,NNE,10.4,16.1,N/A,,Overcast,20,2013-03-11 10:55:00
7:15 AM,33.8,30.2,87,29.58,2.5,North,9.2,-,N/A,,Overcast,360,2013-03-11 11:15:00
7:35 AM,33.8,30.2,87,29.59,2.5,North,8.1,-,N/A,,Overcast,360,2013-03-11 11:35:00
7:55 AM,33.8,30.2,87,29.58,2.5,North,8.1,-,N/A,,Overcast,10,2013-03-11 11:55:00
8:15 AM,32.0,30.2,93,29.58,1.8,North,6.9,-,N/A,,Overcast,360,2013-03-11 12:15:00
8:35 AM,32.0,28.4,87,29.58,2.0,North,6.9,-,N/A,,Overcast,360,2013-03-11 12:35:00
8:55 AM,32.0,28.4,87,29.58,2.5,North,9.2,-,N/A,,Overcast,350,2013-03-11 12:55:00
9:15 AM,32.0,28.4,87,29.59,2.0,North,6.9,-,N/A,,Overcast,360,2013-03-11 13:15:00
9:35 AM,32.0,30.2,93,29.60,2.0,North,8.1,-,N/A,,Overcast,350,2013-03-11 13:35:00
10:15 AM,32.0,30.2,93,29.59,1.2,NNW,8.1,-,N/A,,Overcast,330,2013-03-11 14:15:00
10:35 AM,32.0,30.2,93,29.60,2.0,NNW,8.1,-,N/A,,Overcast,340,2013-03-11 14:35:00
10:55 AM,33.8,28.4,81,29.59,2.5,NNW,8.1,-,N/A,,Overcast,340,2013-03-11 14:55:00
11:15 AM,33.8,30.2,87,29.57,4.0,North,8.1,-,N/A,,Overcast,350,2013-03-11 15:15:00
11:35 AM,33.8,28.4,81,29.57,6.0,NNW,6.9,-,N/A,,Overcast,340,2013-03-11 15:35:00
11:55 AM,33.8,28.4,81,29.56,10.0,NNW,9.2,-,N/A,,Overcast,340,2013-03-11 15:55:00
12:15 PM,33.8,30.2,87,29.55,10.0,NNW,6.9,-,N/A,,Overcast,340,2013-03-11 16:15:00
12:35 PM,33.8,30.2,87,29.54,10.0,NNW,5.8,-,N/A,,Overcast,330,2013-03-11 16:35:00
12:55 PM,33.8,30.2,87,29.53,10.0,NNW,10.4,-,N/A,,Overcast,340,2013-03-11 16:55:00
1:15 PM,33.8,30.2,87,29.52,10.0,North,12.7,18.4,N/A,,Overcast,350,2013-03-11 17:15:00
1:35 PM,33.8,30.2,87,29.55,10.0,North,10.4,19.6,N/A,,Overcast,360,2013-03-11 17:35:00
1:55 PM,33.8,30.2,87,29.55,10.0,NNW,6.9,-,N/A,,Overcast,340,2013-03-11 17:55:00
2:15 PM,33.8,28.4,81,29.55,10.0,NNW,8.1,-,N/A,,Overcast,330,2013-03-11 18:15:00
2:35 PM,33.8,30.2,87,29.54,10.0,NNW,9.2,-,N/A,,Overcast,330,2013-03-11 18:35:00
2:55 PM,33.8,28.4,81,29.52,10.0,NW,13.8,-,N/A,,Overcast,320,2013-03-11 18:55:00
3:15 PM,33.8,28.4,81,29.52,10.0,NNW,12.7,-,N/A,,Overcast,330,2013-03-11 19:15:00
3:35 PM,33.8,28.4,81,29.52,10.0,NNW,12.7,16.1,N/A,,Overcast,340,2013-03-11 19:35:00
3:55 PM,33.8,28.4,81,29.52,10.0,NNW,8.1,-,N/A,,Overcast,340,2013-03-11 19:55:00
4:15 PM,33.8,28.4,81,29.53,10.0,North,9.2,-,N/A,,Overcast,350,2013-03-11 20:15:00
4:35 PM,33.8,28.4,81,29.52,10.0,NNW,8.1,-,N/A,,Overcast,330,2013-03-11 20:35:00
4:55 PM,33.8,26.6,75,29.52,10.0,NNW,10.4,18.4,N/A,,Overcast,340,2013-03-11 20:55:00
5:15 PM,33.8,28.4,81,29.51,10.0,NNW,11.5,-,N/A,,Overcast,330,2013-03-11 21:15:00
5:35 PM,33.8,26.6,75,29.50,10.0,NNW,15.0,24.2,N/A,,Overcast,330,2013-03-11 21:35:00
5:55 PM,33.8,26.6,75,29.50,10.0,NNW,11.5,20.7,N/A,,Overcast,330,2013-03-11 21:55:00
6:15 PM,33.8,26.6,75,29.49,10.0,NNW,16.1,21.9,N/A,,Overcast,330,2013-03-11 22:15:00
6:35 PM,33.8,24.8,70,29.47,10.0,NNW,17.3,23.0,N/A,,Overcast,330,2013-03-11 22:35:00
6:55 PM,32.0,24.8,75,29.48,10.0,NNW,11.5,23.0,N/A,,Overcast,340,2013-03-11 22:55:00
7:15 PM,32.0,24.8,75,29.50,10.0,NNW,11.5,24.2,N/A,,Overcast,330,2013-03-11 23:15:00
7:35 PM,30.2,24.8,80,29.53,10.0,North,10.4,18.4,N/A,,Overcast,350,2013-03-11 23:35:00
7:55 PM,30.2,23.0,75,29.54,10.0,NNW,13.8,21.9,N/A,,Overcast,340,2013-03-11 23:55:00
8:15 PM,30.2,21.2,69,29.55,10.0,North,13.8,20.7,N/A,,Overcast,350,2013-03-12 00:15:00
8:35 PM,30.2,21.2,69,29.55,10.0,NNW,10.4,23.0,N/A,,Overcast,330,2013-03-12 00:35:00
8:55 PM,30.2,21.2,69,29.55,10.0,NNW,16.1,21.9,N/A,,Overcast,330,2013-03-12 00:55:00
9:15 PM,30.2,23.0,75,29.55,10.0,NNW,11.5,23.0,N/A,,Overcast,330,2013-03-12 01:15:00
9:35 PM,28.4,24.8,86,29.56,6.0,NNW,13.8,21.9,N/A,,Overcast,330,2013-03-12 01:35:00
9:55 PM,28.4,23.0,80,29.56,4.0,NW,13.8,19.6,N/A,,Overcast,320,2013-03-12 01:55:00
10:15 PM,28.4,23.0,80,29.57,2.5,NW,10.4,23.0,N/A,,Overcast,320,2013-03-12 02:15:00
10:35 PM,28.4,23.0,80,29.57,4.0,WNW,12.7,21.9,N/A,,Overcast,300,2013-03-12 02:35:00
10:55 PM,28.4,23.0,80,29.56,4.0,NW,12.7,17.3,N/A,,Overcast,310,2013-03-12 02:55:00
11:15 PM,28.4,21.2,74,29.57,4.0,NW,11.5,21.9,N/A,,Overcast,310,2013-03-12 03:15:00
11:35 PM,28.4,21.2,74,29.58,5.0,NW,12.7,17.3,N/A,,Overcast,310,2013-03-12 03:35:00
11:55 PM,26.6,21.2,80,29.58,6.0,WNW,11.5,19.6,N/A,,Overcast,300,2013-03-12 03:55:00